Regional Weather Roundup
Issued by NWS

Home | Current Version | Previous Version | Text Only | Print | Product List | Glossary Off
Versions: 1 2 3 4 5 6 7 8 9 10 11 12 13 14 15 16 17 18 19 20 21 22 23 24 25 26 27 28 29 30 31 32 33 34 35 36 37 38 39 40 41 42 43 44 45 46 47 48 49 50

000
ASUS43 KMPX 212201
RWRMN
WEATHER ROUNDUP FOR MINNESOTA
NATIONAL WEATHER SERVICE TWIN CITIES/CHANHASSEN MN
500 PM CDT SAT APR 21 2018


NOTE: "FAIR" INDICATES FEW OR NO CLOUDS BELOW 12,000 FEET WITH NO
SIGNIFICANT WEATHER AND/OR OBSTRUCTIONS TO VISIBILITY. N/A MEANS
CURRENT SKY AND/OR WEATHER CONDITIONS ARE NOT AVAILABLE.

MNZ060>063-068>070-212300-
   Twin Cities Metro

CITY           SKY/WX    TMP DP  RH WIND       PRES   REMARKS
TWIN CITIES    FAIR      58  15  18 S6        30.33F
ST PAUL        FAIR      58  20  22 SW10      30.33F
CRYSTAL        FAIR      58  18  21 CALM      30.32F
BLAINE         MOSUNNY   61  18  18 CALM      30.32F
LAKEVILLE      FAIR      55  34  44 SW3       30.34F
EDEN PRAIRIE   FAIR      58  20  22 VRB3      30.32F
SOUTH ST PAUL  FAIR      58  21  23 CALM      30.32F
LAKE ELMO      FAIR      57  25  28 CALM      30.34F
$$
MNZ001>005-007-008-013>017-022>024-027-028-212300-
   Northwest Minnesota

CITY           SKY/WX    TMP DP  RH WIND       PRES   REMARKS
BEMIDJI        FAIR      60  32  35 W3        30.28S
HALLOCK        FAIR      63  43  48 S17       30.23F
ROSEAU         PTSUNNY   61  46  59 SW15      30.26S
WARROAD        FAIR      61  43  51 SW7       30.26S
THIEF RVR FALL FAIR      58  41  53 SW10      30.28F
CROOKSTON      FAIR      59  45  58 SW13      30.28F
FOSSTON        FAIR      61  34  36 S12       30.29S
DETROIT LAKES  FAIR      59  32  36 S3G9      30.30F
MOORHEAD       FAIR      61  37  41 S9        30.29F
PARK RAPIDS    FAIR      58  30  34 SW8       30.30F
MAHNOMEN       FAIR      59  32  36 S13G18    30.29S
$$
MNZ006-009>011-018-025>026-212300-
   North Central Minnesota

CITY           SKY/WX    TMP DP  RH WIND       PRES   REMARKS
BAUDETTE       FAIR      60  27  28 S10       30.26F
FLAG ISLAND    FAIR      52  27  37 SE9       30.25S
INTL FALLS     FAIR      61  26  26 VRB7      30.27S
WASKISH        PTSUNNY   57  32  38 W6        30.29S
BIG FORK       FAIR      59  23  25 CALM      30.30S
LONGVILLE      FAIR      59  27  29 SW8       30.31S
GRAND RAPIDS   FAIR      56  22  26 W7        30.32F
CRANE LAKE     FAIR      59  16  18 SE3       30.30F
ORR            FAIR      61  16  17 CALM      30.27S
COOK           FAIR      61  21  21 SW5       30.30S
WALKER         FAIR      56  29  35 E6        30.30S
$$
MNZ012-019>021-037-212300-
   Northeast Minnesota

CITY           SKY/WX    TMP DP  RH WIND       PRES   REMARKS
DULUTH         FAIR      56  19  23 SE3       30.32S
ELY            FAIR      59  19  21 SW5       30.29S
HIBBING        FAIR      58  22  24 VRB5      30.30S
EVELETH        FAIR      59  20  21 SW7       30.31S
DULUTH HARBOR  FAIR      48  28  46 E8        30.34S
TWO HARBORS    FAIR      64  27  24 CALM      30.31S
SILVER BAY     FAIR      57  10  15 SW6       30.32S
GRAND MARAIS     N/A     39  33  79 SW3       30.34F
G MARAIS ARPRT FAIR      52  12  20 S8        30.34S
$$
MNZ029>031-032-039>041-046>048-054>057-064-212300-
   West Central Minnesota

CITY           SKY/WX    TMP DP  RH WIND       PRES   REMARKS
FERGUS FALLS   FAIR      57  39  51 S10       30.27F
WHEATON        SUNNY     57  37  47 S12       30.32S
MORRIS         SUNNY     57  37  47 S9        30.31S
ALEXANDRIA     FAIR      59  32  36 SW6       30.31F
ELBOW LAKE     FAIR      57  36  44 S7        30.31F
WADENA         FAIR      57  30  35 S6        30.30F
GLENWOOD       FAIR      57  30  35 SE3       30.32F
APPLETON       SUNNY     55  30  38 S8        30.32F
BENSON         MOSUNNY   57  37  47 SW6       30.33F
ORTONVILLE     SUNNY     57  36  44 S10       30.31S
MADISON        SUNNY     55  43  62 SE6       30.32F
WILLMAR        FAIR      55  36  47 CALM      30.34F
$$
MNZ033>034-036-042>043-049>051-058-059-212300-
   Central Minnesota

CITY           SKY/WX    TMP DP  RH WIND       PRES   REMARKS
ST CLOUD       FAIR      58  29  33 VRB3      30.32F
SAUK CENTRE    FAIR      56  32  40 CALM      30.31F
PAYNESVILLE    FAIR      56  35  45 S7        30.33F
AITKIN         FAIR      55  12  18 S5        30.32F
PINE RIVER     FAIR      54  28  37 CALM      30.34S
BRAINERD       FAIR      57  28  33 VRB5      30.32F
STAPLES        FAIR      55  28  35 SE5       30.31F
LONG PRAIRIE   FAIR      55  32  41 CALM      30.32F
LITTLE FALLS   FAIR      54  21  28 CALM      30.33F
LITCHFIELD     FAIR      57  34  41 E3        30.33F
BUFFALO        FAIR      56  27  33 CALM      30.34F
MAPLE LAKE     FAIR      56  33  41 CALM      30.34F
HUTCHINSON     FAIR      54  34  45 E6        30.34F
$$
MNZ037-044-045-052-053-212300-
   East Central Minnesota

CITY           SKY/WX    TMP DP  RH WIND       PRES   REMARKS
PRINCETON      FAIR      59  27  29 N7        30.33F
MORA           FAIR      54  23  30 CALM      30.36F
CAMBRIDGE      FAIR      59  34  38 W5        30.34F
RUSH CITY      FAIR      56  21  25 S3        30.34F
MOOSE LAKE     FAIR      57  23  26 SW6       30.32S
HINCKLEY       FAIR      57  23  26 W9        30.34S
CLOQUET        FAIR      57  10  15 S7        30.33S
MCGREGOR       FAIR      57  21  24 S9        30.33S
$$
MNZ071>073-080-081-089-090-097-098-212300-
   Southwest Minnesota

CITY           SKY/WX    TMP DP  RH WIND       PRES   REMARKS
MONTEVIDEO     SUNNY     55  36  47 SW5       30.33F
GRANITE FALLS  CLOUDY    54  40  58 S10       30.35S
CANBY          CLOUDY    51  39  63 E5        30.33F
MARSHALL       CLOUDY    46  31  55 S8        30.33F
REDWOOD FALLS  CLOUDY    49  33  54 S8        30.33F
OLIVIA         SUNNY     54  34  47 S3        30.32F
PIPESTONE      CLOUDY   N/A N/A N/A SE7       30.31F
WINDOM         MOSUNNY   45  27  49 E5        30.33F
WORTHINGTON    CLOUDY    45  37  73 NE7       30.32F
JACKSON        CLOUDY    41  34  75 NE6       30.33F
TRACY          CLOUDY    45  33  63 SE5       30.33F
SLAYTON        CLOUDY    43  33  66 E7        30.33F
$$
MNZ065>067-074>077-082>085-091>093-212300-
   South Central Minnesota

CITY           SKY/WX    TMP DP  RH WIND       PRES   REMARKS
MANKATO        CLOUDY    51  33  50 SE3       30.35F
NEW ULM        CLOUDY    50  27  40 CALM      30.34F
ST JAMES       CLOUDY    45  34  65 SE6       30.36S
FAIRMONT       CLOUDY    42  34  73 E5        30.34F
GLENCOE        FAIR      55  26  32 CALM      30.33F
FARIBAULT      FAIR      54  34  47 CALM      30.35S
OWATONNA       FAIR      54  34  47 CALM      30.34F
WASECA         CLOUDY    52  36  54 E3        30.35F
ALBERT LEA     PTSUNNY   46  32  57 NE3       30.34S
$$
MNZ078>079-086>088-094>096-212300-
   Southeast Minnesota

CITY           SKY/WX    TMP DP  RH WIND       PRES   REMARKS
ROCHESTER      CLOUDY    51  34  52 CALM      30.35F
RED WING       FAIR      59  27  29 SW8       30.33F
STANTON        FAIR      55  36  48 S3        30.33F
DODGE CENTER   PTSUNNY   52  36  54 CALM      30.34F
WINONA         CLOUDY    55  32  41 W3        30.33F
AUSTIN         PTSUNNY   48  37  66 CALM      30.34S
PRESTON        CLOUDY    52  32  46 SE5       30.35S
$$
ABBREVIATIONS USED IN REMARKS
   TC - TEMPERATURES IN CELSIUS
  WCI - WIND CHILL INDEX
   HX - HEAT INDEX
  VSB - VISIBILITY
$$



USA.gov is the U.S. government's official web portal to all federal, state and local government web resources and services.